Flag for Germany Weather past 2 weeks in Bühl, Baden-Württemberg, Germany

Now
48 °F

Clear.


Feels Like: 46 °F
Forecast: 35 / 53 °F
Wind: 6 mph from Southwest

Location: Karlsruhe - Baden Wurttemberg


UV Index: 0 (Low)

Visibility: 10 mi


Pressure: 29.86 "Hg

Humidity: 54%

Dew point: 32 °F

Location of BühlLocation

Historic Weather in Bühl

°F

Bühl temperature yesterday

Maximum temperature yesterday: 63 °F (at 3:20 PM)
Minimum temperature yesterday: 34 °F (at 5:50 AM)
Average temperature yesterday: 51 °F

Past Weeks' High & Low Weather Summary

 TemperatureHumidityPressure
High75 °F (Apr 3, 3:50 PM)94% (Apr 5, 10:50 PM)30.36 "Hg (Apr 5, 10:50 PM)
Low34 °F (Apr 16, 5:20 AM)24% (Apr 17, 3:20 PM)29.62 "Hg (Apr 3, 2:20 PM)
Average55 °F57%30.06 "Hg
* Reported Apr 3 5:20 AM — Apr 18 5:20 AM, Bühl, Weather by CustomWeather, © 2014

Note: Actual official high and low records may vary slightly from our data, if they occured in-between our weather recording intervals... More about our weather records

Advertising

Historic Weather Conditions — Data for Previous 24 hours

 ConditionsComfort  
Time TempWeatherWind HumidityBarometerVisibility
5:20 AM
Apr 18
48 °FClear.7 mph54%29.86 "Hg10 mi
4:50 AM48 °FClear.7 mph54%29.89 "Hg10 mi
12:20 AM45 °FClear.5 mph61%29.95 "Hg10 mi
11:50 PM
Apr 17
45 °FClear.1 mph61%29.98 "Hg10 mi
11:20 PM45 °FClear.3 mph61%29.98 "Hg10 mi
10:50 PM48 °FClear.3 mph50%29.98 "Hg10 mi
10:20 PM46 °FClear.2 mph53%29.98 "Hg10 mi
9:50 PM48 °FClear.No wind50%29.98 "Hg10 mi
9:20 PM52 °FSunny.2 mph47%29.98 "Hg10 mi
8:50 PM54 °FSunny.1 mph41%30.01 "Hg10 mi
8:20 PM57 °FSunny.2 mph31%30.01 "Hg10 mi
7:50 PM61 °FSunny.3 mph25%30.01 "Hg10 mi
6:50 PM63 °FSunny.3 mph24%30.01 "Hg10 mi
6:20 PM63 °FPassing clouds.5 mph25%30.04 "HgN/A
5:50 PM63 °FPassing clouds.5 mph25%30.04 "HgN/A
5:20 PM63 °FSunny.3 mph25%30.04 "Hg10 mi
4:50 PM63 °FPassing clouds.6 mph24%30.07 "HgN/A
4:20 PM63 °FPassing clouds.5 mph24%30.07 "HgN/A
3:50 PM63 °FPassing clouds.6 mph24%30.07 "HgN/A
3:20 PM63 °FPassing clouds.7 mph24%30.09 "HgN/A
2:50 PM61 °FPassing clouds.8 mph27%30.09 "HgN/A
2:20 PM61 °FPassing clouds.9 mph27%30.12 "HgN/A
1:50 PM61 °FPassing clouds.7 mph25%30.12 "HgN/A
1:20 PM61 °FPassing clouds.8 mph25%30.15 "HgN/A
12:50 PM59 °FPassing clouds.8 mph29%30.15 "HgN/A
12:20 PM57 °FPassing clouds.7 mph33%30.18 "HgN/A
11:50 AM55 °FPassing clouds.9 mph38%30.21 "HgN/A
11:20 AM54 °FSunny.10 mph41%30.21 "Hg10 mi
10:50 AM52 °FSunny.10 mph47%30.21 "Hg10 mi
10:20 AM50 °FPassing clouds.7 mph54%30.24 "HgN/A
9:50 AM48 °FSunny.8 mph54%30.24 "Hg10 mi
9:20 AM45 °FSunny.6 mph66%30.24 "Hg10 mi
8:50 AM41 °FSunny.8 mph70%30.24 "Hg10 mi
8:20 AM39 °FSunny.8 mph75%30.27 "Hg10 mi
7:50 AM37 °FSunny.6 mph81%30.27 "Hg10 mi
7:20 AM36 °FClear.6 mph87%30.27 "Hg10 mi
6:50 AM36 °FClear.5 mph87%30.24 "Hg10 mi
6:20 AM36 °FClear.3 mph81%30.24 "Hg10 mi
Weather by CustomWeather, © 2014

See weather overview